Regional Weather Roundup
Issued by NWS

Home | Current Version | Previous Version | Text Only | Print | Product List | Glossary Off
Versions: 1 2 3 4 5 6 7 8 9 10 11 12 13 14 15 16 17 18 19 20 21 22 23 24 25 26 27 28 29 30 31 32 33 34 35 36 37 38 39 40 41 42 43 44 45 46 47 48 49 50

855
ASUS45 KTFX 081510
RWRMT
MONTANA REGIONAL WEATHER ROUNDUP
NATIONAL WEATHER SERVICE GREAT FALLS MT
800 AM MST THU DEC 08 2016

NOTE: "FAIR" INDICATES FEW OR NO CLOUDS BELOW 12000 FEET WITH NO
SIGNIFICANT WEATHER AND/OR OBSTRUCTIONS TO VISIBILITY.

MTZ001>007-043-081600-
WEST OF THE DIVIDE

CITY           SKY/WX    TMP DP  RH WIND       PRES   REMARKS
KALISPELL      CLOUDY     2  -7  66 N10       30.42S WCI -14
MISSOULA       CLEAR      6  -2  69 E12       30.39S WCI  -9
BUTTE          CLOUDY    -9 -14  78 CALM      30.22F
MULLAN PASS    CLOUDY    -1  -4  87 SE6       30.07S FOG     WCI -13
ANACONDA         N/A     -8 -15  71 SW6       30.25F WCI -21
DEER LODGE       N/A     -6 -11  77 CALM      30.30S
EUREKA           N/A     -2  -8  78 E5        30.51S
HAMILTON         N/A      7   1  78 S6        30.33F WCI  -3
LIBBY            N/A      9   5  85 CALM      30.44S
PLAINS           N/A     16   4  59 CALM      30.39
RONAN            N/A     12   5  73 S6        30.36F WCI   3
$$

MTZ008-052>055-081600-
SOUTHWEST MONTANA

CITY           SKY/WX    TMP DP  RH WIND       PRES   REMARKS
BOZEMAN        CLOUDY    -5 -10  79 S5        30.34F
DILLON         CLOUDY    -7 -13  75 S8        30.25F WCI -23
W YELLOWSTONE  CLOUDY   -13 -20  70 CALM      30.23S
ENNIS          CLEAR     -6 -11  77 E3        30.29F
$$

MTZ009-010-012-014-046-048-049-054-081600-
EAST SLOPES AND CENTRAL MONTANA

CITY           SKY/WX    TMP DP  RH WIND       PRES   REMARKS
CUT BANK       CLOUDY    -6 -11  79 CALM      30.47S
GREAT FALLS    CLOUDY    -3  -8  79 NE7       30.47F WCI -16
MALMSTROM AFB  FLURRIES  -4  -6  92 NE6       30.51F WCI -16
HELENA         CLOUDY     2  -5  72 NW5       30.41F
AUGUSTA        FLURRIES  -7 -11  84 NE6       30.39S WCI -20
CHOTEAU          N/A     -6  -9  84 MISG      30.47S
CONRAD           N/A     -5 -10  79 NW3       30.45R
FAIRFIELD      FLURRIES  -7 -13  75 N3        30.45S
POWER          FLURRIES  -6 -10  80 N5        30.46F
RAYNESFORD     CLOUDY    -3  -8  80 SE7       30.43F WCI -17
ULM            FLURRIES  -4  -8  82 N8        30.48F WCI -19
$$

MTZ011-013-016-021-045-047-050-051-081600-
NORTH CENTRAL MONTANA

CITY           SKY/WX    TMP DP  RH WIND       PRES   REMARKS
HAVRE          CLOUDY   -12 -17  78 S3        30.63F
LEWISTOWN      CLOUDY    -4  -9  79 N3        30.42S
N BAR RANCH    CLOUDY    -6 -15  65 CALM      30.41F
CHINOOK          N/A    -11 -17  77 CALM      30.66F
DENTON         CLOUDY    -4  -8  81 MISG      30.46F
GEYSER         CLOUDY    -4  -7  84 NE5       30.42F
JUDITH GAP     FLURRIES  -3  -8  82 MISG      30.37S
STANFORD       CLOUDY    -6  -8  87 NE1       30.38F
$$

MTZ017>020-022>027-061-062-081600-
NORTHEAST MONTANA

CITY           SKY/WX    TMP DP  RH WIND       PRES   REMARKS
GLASGOW        CLEAR     -8 -13  78 W6        30.65S WCI -21
JORDAN           N/A    -12 -17  78 W5        30.62F
SIDNEY         CLOUDY     0  -5  79 W8        30.68S WCI -14
WOLF POINT     CLEAR     -6 -11  79 W7        30.69R WCI -20
PLENTYWOOD       N/A     -9 -15  77 W8        30.62R WCI -26
POPLAR           N/A     -4  -9  77 W3        30.69R
SCOBEY           N/A    -11 -22  57 NW2       30.55
$$

MTZ028>42-056>058-081600-
SOUTHCENTRAL AND SOUTHEAST MONTANA

CITY           SKY/WX    TMP DP  RH WIND       PRES   REMARKS
BAKER          CLOUDY    -5  -9  83 W13       30.58S WCI -24
BILLINGS       PTCLDY    -1  -7  75 E8        30.50S WCI -15
LIVINGSTON     CLOUDY    -8 -13  78 SE8       30.35F WCI -24
MILES CITY     CLEAR     -6 -13  71 CALM      30.64R
BIG TIMBER     CLEAR     -6  -9  84 SE3       30.41F
EKALAKA          N/A     -8 -16  68 SW8       30.42  WCI -24
FORSYTH          N/A     -6 -11  77 CALM      30.61F
HARLOWTON      CLOUDY    -3  -6  84 E5        30.41S
LAUREL           N/A     -4 -14  62 NE1       30.41F
$$

REGIONAL REPORTS...DAKOTAS

CITY           SKY/WX    TMP DP  RH WIND       PRES   REMARKS
WILLISTON      CLEAR     -5 -11  75 W9        30.67R WCI -22
MINOT          CLEAR     -2  -8  76 W17       30.60R WCI -23
DICKINSON      CLOUDY    -6 -11  79 NW22      30.56R HAZE    WCI -31
BEACH          CLOUDY    -4  -8  84 W14       30.62S WCI -24
CROSBY           N/A     -6 -11  77 NW10      30.64S WCI -23
TIOGA          MOCLDY    -2  -4  92 NW17      30.60R WCI -24
WATFORD CITY   FLURRIES   0  -6  78 NW8       30.64R WCI -15
BISMARCK       CLOUDY     1  -5  75 W12       30.63R WCI -16
GRAND FORKS    LGT SNOW  15  10  80 NW22      30.47R WCI  -3
FARGO          LGT SNOW  16   9  74 NW22G28   30.47R WCI  -2
BUFFALO SD       N/A     -7 -12  79 W10       30.48R WCI -25
RAPID CITY     CLEAR     -1  -9  68 CALM      30.57R
$$

REGIONAL REPORTS...WYOMING/IDAHO/WASHINGTON

CITY           SKY/WX    TMP DP  RH WIND       PRES   REMARKS
GILLETTE       CLOUDY   -14 -17  87 CALM      30.46S
SHERIDAN       CLOUDY   -10 -16  74 CALM      30.47S
BUFFALO WY     CLOUDY    -3 -14  59 SW6       30.38S WCI -15
CODY           CLOUDY   -10 -15  78 S6        30.35S WCI -23
YELLOWSTONE LA   N/A    -13 -17  82 NW3       30.15S
IDAHO FALLS    CLOUDY     4  -1  80 N3        30.29F
SALMON         CLOUDY    -8  -9  92 CALM      30.34F
BOISE          CLOUDY    19  11  70 S9        30.26S WCI   8
SPOKANE        PTCLDY    14   4  64 NE12      30.30F WCI   0
$$

REGIONAL REPORTS...ALBERTA

CITY           SKY/WX    TMP DP  RH WIND       PRES   REMARKS
EDMONTON       CLOUDY    -9 -17  70 CALM      30.69F
CALGARY        CRYSTALS -13 -18  77 S2        30.50F
LETHBRIDGE     PTCLDY   -20 -26  76 W7        30.58S FOG     WCI -37
MEDICINE HAT   PTCLDY   -18 -24  76 S5        30.67S
WATERTON GATE    N/A    -29 -36  68 E1          N/A
CARDSTON         N/A    -13 -20  70 S1          N/A
MILK RIVER       N/A    -11 -17  77 W3          N/A
ONEFOUR          N/A    -15 -20  76 NW7         N/A  WCI -31
$$

REGIONAL REPORTS...SASKATCHEWAN

CITY           SKY/WX    TMP DP  RH WIND       PRES   REMARKS
SWIFT CURRENT  CLOUDY   -11 -15  84 W10       30.57S WCI -30
REGINA         FLURRIES  -2  -8  78 NW16      30.62S WCI -23
SASKATOON      CRYSTALS  -9 -13  84 NW8       30.70R WCI -26
CYPRESS HILLS    N/A    -15 -20  76 NW1         N/A
VAL MARIE        N/A    -13 -18  77 CALM        N/A
ROCKGLEN         N/A     -9 -13  84 NW7         N/A  WCI -24
$$




USA.gov is the U.S. government's official web portal to all federal, state and local government web resources and services.